Wind_Speed
123 124 125 126 127 129 131 133 135 137 139 141 143 144 146 148 149 150 151 151 151 151 150 150 149 148 147 147 147 147 147 146 146 146 145 143 141 139 136 132 129 126 124 122 120 119 117 116 114 112 110 108 106 104 102 99 97 94 91 88 86 83 81 79 78 76 74 72 71 69 68 67 66 65 64 63 62 62 61 61 60 60 59 59 58 58
124 125 126 127 129 130 132 134 136 138 140 142 144 145 147 148 150 151 151 152 151 151 150 150 149 148 148 147 147 147 147 147 147 146 144 142 140 137 134 131 128 125 123 121 120 118 117 115 113 111 109 107 105 102 100 97 94 91 89 86 84 82 79 78 76 74 72 71 69 67 66 65 64 64 63 62 61 61 60 59 59 58 57 56 56 55
124 125 127 128 130 132 134 136 138 140 141 143 144 146 148 149 150 151 152 152 152 151 150 150 149 148 148 148 148 148 147 147 146 145 144 141 139 136 133 130 127 125 123 121 120 118 116 114 112 110 108 106 103 100 98 95 92 89 86 84 82 80 78 76 74 73 71 70 68 66 65 63 63 62 61 60 60 59 59 58 57 57 56 55 54 53
125 126 128 129 131 133 135 137 139 141 143 144 146 147 148 149 151 151 152 152 152 151 151 150 149 149 148 148 148 148 148 147 146 145 143 140 137 134 131 129 127 125 123 121 120 118 115 113 111 109 106 103 101 98 95 92 89 87 84 82 80 78 76 75 73 71 70 68 67 65 64 62 61 60 59 59 58 57 57 57 56 55 54 54 53 52
126 127 128 130 132 135 137 139 140 142 144 145 147 148 149 150 151 151 152 152 152 151 150 150 149 149 149 149 149 148 148 147 146 144 142 139 136 133 130 128 126 124 123 121 119 116 114 112 109 107 104 101 98 95 92 89 87 84 82 80 78 77 75 73 72 70 69 67 66 64 63 61 60 59 58 57 56 56 55 55 55 54 53 53 52 51
127 128 130 131 133 136 138 140 141 143 144 146 148 149 150 151 152 152 152 152 151 151 150 150 149 149 149 149 149 148 148 147 145 143 140 137 134 131 129 127 125 123 122 119 117 115 112 110 107 104 101 98 95 92 89 86 84 82 80 78 76 75 73 72 70 69 68 66 65 63 62 60 59 58 57 56 55 54 54 53 53 52 52 51 51 50
128 129 131 133 135 137 139 141 143 144 145 147 148 150 151 152 153 153 152 152 151 150 150 150 150 150 149 149 149 148 147 145 144 141 138 135 132 129 127 125 124 122 120 118 115 113 110 108 105 102 98 95 92 89 86 84 82 80 78 76 75 73 72 70 69 68 66 65 64 62 61 59 58 57 56 55 54 53 52 52 51 51 50 50 49 49
128 130 132 134 136 138 140 141 143 145 146 148 149 150 152 152 153 153 153 152 151 150 150 149 149 149 149 149 148 147 146 144 142 139 136 132 130 127 125 124 122 120 118 116 113 111 108 105 102 99 95 92 89 86 84 82 80 78 76 75 73 72 70 69 68 66 65 64 63 61 60 58 57 56 55 54 53 52 51 50 49 49 48 48 47 47
129 131 133 135 137 139 141 142 144 146 147 148 149 151 152 152 152 152 152 151 150 150 149 149 149 149 149 148 147 146 144 142 139 136 133 130 127 125 123 122 120 118 116 113 111 108 105 102 99 95 92 89 86 84 82 79 78 76 74 73 71 70 69 67 66 65 64 63 61 60 59 57 56 55 54 52 51 51 50 49 48 47 47 46 45 45
130 132 134 136 138 139 141 143 145 147 148 149 150 151 151 151 151 151 151 150 150 149 148 148 148 148 148 147 146 144 142 139 137 133 130 127 125 123 122 120 118 115 113 111 108 105 102 99 95 92 89 87 84 82 79 77 76 74 72 71 70 68 67 66 65 64 63 61 60 59 58 56 55 54 52 51 50 49 48 47 46 45 45 44 44 43
132 134 136 138 139 141 143 144 146 148 149 150 151 152 152 152 151 150 149 149 149 149 148 148 148 147 147 146 144 142 140 137 134 131 128 125 123 121 120 118 115 113 110 108 105 102 99 95 92 89 87 84 82 80 77 76 74 72 70 69 68 67 66 64 63 62 61 60 59 57 56 55 54 52 51 50 49 47 46 45 45 44 43 42 42 41
133 135 137 139 141 142 144 146 147 148 149 150 151 152 152 152 151 149 148 148 148 148 148 148 147 147 145 144 142 140 137 134 131 129 126 124 122 120 118 115 113 111 108 105 102 99 95 92 89 87 84 82 80 78 76 74 72 70 69 67 66 65 64 63 62 61 60 59 57 56 55 53 52 51 50 48 47 46 45 44 43 42 41 41 40 39
135 136 138 140 142 143 145 146 148 149 150 150 151 151 151 151 151 150 148 148 147 147 147 147 147 146 145 143 140 137 135 132 129 126 124 122 120 118 116 113 111 108 105 102 99 95 92 90 87 85 82 80 78 76 74 72 71 69 67 66 65 63 62 61 60 59 58 57 56 54 53 52 51 49 48 47 46 45 44 42 42 41 40 39 39 38
136 138 139 141 143 144 146 147 148 149 150 150 151 151 151 151 150 149 149 148 148 148 147 147 146 145 143 141 138 135 132 129 127 125 123 120 118 116 114 111 108 105 102 99 95 92 90 87 85 83 81 79 76 75 73 71 70 68 66 65 64 62 61 60 59 57 56 55 54 53 52 51 49 48 47 46 44 43 42 41 41 40 39 38 37 37
136 138 140 142 143 145 146 147 148 149 150 151 151 151 151 151 150 149 148 148 148 148 147 146 146 144 142 139 136 133 130 127 125 123 121 119 116 114 111 109 106 102 99 96 93 90 87 85 83 81 79 77 75 74 72 70 69 67 66 64 63 61 60 58 57 56 55 54 53 51 50 49 48 47 46 45 44 42 42 41 40 39 38 37 37 36
137 139 140 142 144 146 147 148 149 149 150 151 151 151 151 150 149 149 148 148 147 147 146 146 145 143 140 137 133 130 127 125 123 121 119 117 114 111 109 106 103 100 96 93 90 87 85 83 81 79 77 76 74 72 71 69 68 66 65 63 62 60 59 57 56 55 53 52 51 50 49 48 47 46 45 44 43 42 41 40 39 38 38 37 36 35
138 140 142 143 145 147 148 149 149 150 150 151 151 151 150 149 149 148 148 147 147 146 146 144 142 140 138 134 130 127 124 123 121 119 117 114 112 109 106 103 100 97 93 90 88 85 83 81 80 78 76 74 73 71 70 68 67 65 64 62 61 59 58 56 55 54 53 51 50 49 49 48 47 46 45 44 42 41 40 39 39 38 37 36 36 35
139 141 143 144 146 147 149 150 150 151 151 151 151 150 150 149 148 148 147 147 146 146 145 143 140 137 134 131 128 125 122 120 119 117 114 112 109 106 103 100 97 94 90 88 85 83 81 80 78 76 74 73 71 70 68 67 65 64 62 61 59 58 57 55 54 53 52 51 50 49 48 47 46 45 44 43 42 41 40 39 38 37 37 36 35 35
141 142 144 145 147 148 149 150 150 151 150 150 150 149 149 148 148 147 146 146 145 144 143 141 137 134 131 128 125 122 120 118 116 114 112 110 107 104 100 97 94 91 88 85 83 81 80 78 76 74 73 71 70 68 67 66 64 63 61 60 58 57 56 55 53 52 51 50 49 48 47 47 46 45 44 43 42 40 39 38 37 37 36 35 35 34
142 143 145 146 148 149 150 150 151 150 150 150 149 148 148 147 147 146 146 145 144 143 140 138 134 131 127 125 122 120 118 116 114 112 109 107 104 101 97 94 91 88 86 83 81 79 78 76 74 73 71 70 68 67 66 64 63 61 60 58 57 56 55 54 53 52 51 50 49 48 47 46 45 44 43 42 41 40 39 38 37 36 35 35 34 33
142 144 146 147 148 149 150 150 151 150 150 149 148 147 147 146 146 145 145 144 143 141 138 135 131 128 124 122 120 118 116 113 111 109 107 104 101 97 94 91 88 86 83 81 79 77 76 74 73 71 70 68 67 65 64 63 61 60 58 57 56 55 54 53 52 51 50 49 48 47 46 45 44 43 42 41 41 39 38 37 36 35 34 34 33 33
143 145 147 148 149 149 150 150 150 150 149 148 147 146 146 145 145 144 144 143 141 138 135 132 128 124 121 119 117 115 113 111 109 106 104 101 98 94 91 88 86 84 81 79 77 75 74 72 71 69 68 67 65 64 63 61 60 59 57 56 55 54 53 52 51 50 49 48 47 46 45 44 44 43 42 41 40 39 38 36 35 34 34 33 32 32
144 146 147 149 149 150 150 150 150 150 149 148 146 145 144 144 144 143 142 140 138 135 132 128 125 122 119 117 115 113 110 108 106 103 101 98 94 91 88 86 84 81 79 77 75 74 72 71 69 68 66 65 64 63 61 60 59 58 56 55 54 53 52 51 50 49 48 47 46 45 44 43 43 42 41 40 39 38 37 36 35 34 33 32 31 31
145 146 148 149 149 150 150 150 150 149 148 147 146 145 144 143 142 141 140 138 135 132 128 125 122 120 117 115 113 111 108 106 103 100 98 95 91 88 86 83 82 80 78 75 73 72 70 69 68 66 65 64 62 61 60 59 58 57 55 54 53 52 51 50 49 48 47 46 45 44 43 42 42 41 40 39 38 37 36 35 34 33 32 31 31 30
146 147 148 149 150 150 150 150 149 148 147 146 145 144 143 143 142 140 138 135 132 129 125 122 120 118 116 114 111 109 106 104 101 98 95 92 89 86 83 81 79 78 76 74 72 70 69 67 66 65 63 62 61 60 59 58 57 55 54 53 52 51 50 49 48 47 46 45 44 43 42 41 41 40 39 38 37 36 35 34 33 32 31 31 30 29
146 148 148 149 150 150 150 149 149 148 146 145 144 143 142 142 141 139 136 133 129 126 123 121 119 117 114 112 109 107 104 102 98 95 92 89 87 84 82 79 78 76 74 73 71 69 67 66 65 63 62 61 60 59 58 56 55 54 53 52 51 50 49 48 46 45 44 44 43 42 41 40 39 38 38 37 36 35 34 34 33 32 31 30 29 29
147 148 148 149 150 149 149 149 147 146 145 144 143 142 141 140 139 136 134 130 127 123 121 119 117 115 113 110 108 105 103 100 96 93 90 87 85 82 80 78 76 74 73 71 69 68 66 65 64 62 61 60 59 57 56 55 54 53 52 51 50 49 47 46 45 44 43 42 41 41 40 39 38 37 37 36 35 34 34 33 32 31 30 29 28 28
147 148 148 149 149 149 148 147 146 145 144 143 142 141 140 138 136 134 130 127 124 121 119 117 115 113 111 108 106 103 100 97 94 90 87 85 83 81 78 76 74 72 71 69 68 66 65 63 62 61 60 59 58 56 55 54 53 52 51 49 48 47 46 45 44 43 42 41 40 39 38 38 37 36 35 35 34 33 33 32 31 30 29 28 28 27
147 148 148 149 148 148 147 146 145 143 142 141 141 139 138 136 133 130 127 124 121 118 117 115 113 111 109 106 104 101 98 94 91 88 85 83 81 79 77 75 73 71 69 68 67 65 63 62 61 60 59 58 57 56 54 53 52 51 50 48 47 46 45 44 43 42 41 40 39 38 37 36 36 35 34 33 33 32 31 31 30 29 28 28 27 26
147 148 148 148 147 146 145 144 143 142 141 140 139 137 136 133 130 126 123 120 118 116 115 112 110 108 106 104 102 99 96 92 89 86 84 82 80 78 76 74 72 70 68 67 66 64 63 61 60 59 58 57 56 55 53 52 51 50 49 47 46 45 44 43 42 41 39 39 37 37 36 35 34 34 33 32 32 31 30 30 29 28 27 27 26 25
146 146 147 146 146 145 144 143 141 140 139 138 137 135 133 130 126 123 120 118 116 114 112 110 108 106 104 102 99 97 93 90 87 84 82 80 78 76 74 73 71 69 68 66 65 64 63 61 60 58 57 56 55 54 53 51 50 49 48 46 45 44 43 42 41 39 38 37 37 36 35 34 33 32 32 31 30 30 29 28 28 27 26 26 25 24
145 145 145 145 144 143 142 141 140 139 138 137 135 132 129 126 123 120 117 115 114 112 110 108 106 104 102 99 96 93 90 88 85 82 80 78 76 74 73 71 70 68 67 65 64 63 62 61 60 58 57 56 54 53 52 51 49 48 47 46 45 43 42 41 40 39 37 36 35 35 34 33 32 31 31 30 29 29 28 27 27 26 26 25 24 23
144 144 144 143 142 141 140 139 138 137 136 134 132 129 126 123 120 117 115 113 112 110 108 106 104 102 100 97 93 90 87 85 82 80 78 77 75 73 71 70 69 67 66 65 63 62 61 60 59 58 56 55 54 52 51 50 49 47 46 45 44 43 42 40 39 38 37 36 35 34 33 32 31 31 30 29 28 27 27 26 26 25 24 24 23 23
143 143 142 142 141 140 138 137 136 135 134 132 129 126 122 119 117 115 113 111 109 108 106 104 102 100 97 94 91 88 85 83 80 78 77 75 73 72 70 69 67 66 65 64 63 62 61 59 58 57 56 54 53 52 50 49 48 47 45 44 43 42 41 39 38 37 36 35 34 33 32 31 30 30 29 28 27 27 26 25 24 24 23 23 22 22
142 142 141 140 139 138 137 136 135 133 131 128 125 122 119 116 114 112 111 109 107 105 103 101 100 97 94 92 89 86 83 81 79 77 75 74 72 71 69 68 67 66 65 64 62 61 60 59 58 56 55 54 52 51 50 48 47 46 45 43 42 41 40 39 38 36 35 34 33 32 31 31 30 29 28 27 27 26 25 24 24 23 22 22 21 21
141 140 139 138 137 136 135 134 133 131 128 125 122 119 116 114 112 110 109 107 105 103 101 99 97 94 91 88 86 84 81 79 78 76 74 72 71 70 68 67 66 65 64 63 62 61 59 58 57 56 54 53 52 50 49 48 46 45 44 43 42 40 39 38 37 36 35 34 33 32 31 30 29 28 27 27 26 25 24 23 23 22 21 21 20 20
139 138 138 136 135 134 134 132 130 128 125 121 118 115 113 111 110 108 107 105 103 102 100 97 95 92 89 86 83 81 79 78 76 74 73 71 70 68 67 66 65 64 63 62 61 60 59 57 56 55 53 52 50 49 48 47 46 44 43 42 41 40 38 37 36 35 34 33 32 31 30 29 28 27 27 26 25 24 23 23 22 21 20 20 19 19
137 137 136 135 134 133 132 130 127 124 121 118 115 113 111 109 108 106 105 103 101 100 98 95 92 89 86 84 81 79 78 76 74 73 71 70 68 67 66 65 64 63 62 61 60 59 58 56 55 54 52 51 50 48 47 46 44 43 42 41 40 38 37 36 35 34 33 32 31 30 29 28 27 26 25 25 24 23 23 22 21 21 20 19 19 18
136 135 134 133 132 131 129 127 124 121 117 115 112 110 109 107 106 104 103 101 99 98 95 93 90 87 84 82 80 78 76 74 73 71 70 68 67 66 65 64 63 62 61 60 59 58 56 55 54 52 51 50 49 47 46 45 43 42 41 40 39 37 36 35 34 33 32 31 30 29 28 27 26 25 24 24 23 22 22 21 21 20 19 19 18 17
134 133 132 131 130 129 126 123 120 117 114 111 109 108 106 105 104 102 100 99 97 95 93 90 87 84 82 80 78 76 74 73 71 70 68 67 66 65 64 63 62 61 60 59 58 56 55 54 52 51 50 48 47 46 45 44 42 41 40 39 38 36 35 34 33 32 31 30 29 28 27 26 25 24 23 22 22 21 20 20 20 19 18 18 17 17
132 131 131 130 128 126 123 119 116 113 111 109 107 106 105 103 102 100 99 97 95 93 90 87 85 82 80 78 76 74 73 71 70 68 67 66 65 64 63 62 61 60 59 58 56 55 54 53 51 50 49 47 46 45 44 42 41 40 39 38 36 35 34 33 32 31 30 29 28 27 26 25 24 23 22 21 20 19 19 18 18 17 17 17 16 16
130 130 129 127 125 122 119 116 113 110 108 107 105 104 103 101 100 98 97 95 93 91 88 85 82 80 78 76 74 73 71 70 68 67 66 65 64 63 62 61 60 59 57 56 55 54 53 51 50 49 48 46 45 44 43 41 40 39 38 36 35 34 33 32 31 30 29 28 27 26 25 24 23 22 21 20 19 18 17 17 16 16 15 15 15 14
129 128 126 125 122 118 115 112 110 107 106 105 104 102 101 99 98 97 95 93 91 88 85 82 80 78 76 74 73 71 70 68 67 66 65 64 63 62 61 60 59 57 56 55 54 53 51 50 49 48 46 45 44 43 42 40 39 38 37 36 34 33 32 31 30 30 29 28 27 25 24 23 22 21 20 19 18 17 16 15 15 14 14 13 13 13
127 126 124 121 118 115 112 109 107 105 104 103 102 100 99 98 96 95 93 91 88 86 83 80 78 76 74 73 71 70 68 67 66 65 64 63 62 61 60 59 58 56 55 54 52 51 50 49 48 47 45 44 43 42 41 39 38 37 36 35 34 33 32 31 30 29 28 27 26 25 24 23 21 20 19 18 17 16 15 14 14 13 12 12 11 11
125 123 121 118 114 111 109 106 105 103 102 101 100 99 97 96 95 93 91 89 86 83 80 78 76 74 73 71 70 68 67 66 65 64 62 62 61 60 59 58 56 55 54 53 51 50 49 48 47 46 44 43 42 41 40 39 38 37 36 34 34 33 32 31 30 29 28 27 26 24 23 22 21 20 19 17 16 15 14 14 13 12 12 11 10 10
123 120 117 114 111 108 106 104 103 102 101 99 98 97 96 94 93 91 89 86 83 81 78 76 74 73 71 70 68 67 66 64 63 62 62 61 60 59 58 57 55 54 53 52 51 49 48 47 46 45 43 42 41 40 39 38 37 36 35 34 33 32 32 31 30 29 28 27 25 24 23 22 20 19 18 17 16 15 14 14 13 12 11 10 10 9
120 117 114 111 108 106 104 102 101 100 99 98 97 95 94 93 91 89 87 84 81 78 76 74 73 71 70 68 67 66 64 63 62 61 61 60 59 58 57 56 54 53 52 51 49 48 47 46 45 44 43 42 41 40 39 38 37 36 35 34 33 32 32 31 30 29 28 27 26 24 23 21 20 19 18 17 16 15 14 14 13 12 11 10 9 9
117 114 111 108 106 104 102 101 100 99 98 96 95 94 93 91 89 87 84 81 79 77 75 73 71 70 68 67 65 64 63 62 61 60 60 59 58 57 56 54 53 52 51 50 49 47 46 45 44 43 42 41 40 39 38 38 37 36 35 34 34 33 32 32 30 29 28 27 26 24 23 22 20 19 18 17 16 15 14 14 13 12 11 10 9 9
113 110 108 105 103 101 100 99 98 97 96 95 94 93 91 89 87 84 82 79 77 75 73 71 70 69 67 66 64 63 62 61 60 59 58 57 57 56 54 53 52 51 50 49 48 46 45 44 43 42 41 40 40 39 38 37 37 36 35 34 34 33 33 32 31 30 29 27 26 25 23 22 21 19 18 17 16 15 15 14 13 12 12 10 9 9
110 107 105 103 101 100 99 98 97 96 95 94 92 91 89 87 85 82 80 77 75 73 71 70 68 67 66 64 63 62 61 60 59 58 58 57 55 54 53 52 51 50 49 48 47 46 44 43 43 42 40 39 39 38 37 37 36 36 35 35 34 34 33 32 31 30 29 28 26 25 23 22 21 19 18 17 16 15 15 14 14 13 12 11 10 9
107 105 102 100 99 98 97 96 95 94 93 92 91 89 87 85 83 80 78 75 73 72 70 68 67 66 64 63 62 61 59 59 58 57 56 55 54 53 52 51 50 49 48 47 46 45 44 43 42 41 40 39 38 38 37 37 37 36 36 35 34 33 32 32 31 30 29 28 26 25 24 22 21 20 18 17 16 16 15 14 14 13 12 11 10 9
Wind_Direction
321 320 320 320 320 320 320 321 321 321 322 322 322 323 323 323 324 324 325 325 325 325 325 325 325 325 324 324 324 324 323 323 323 323 323 323 322 322 322 322 322 322 321 321 320 320 319 319 318 318 317 317 316 316 315 315 314 314 313 312 311 310 309 309 308 307 307 306 305 304 304 302 301 300 299 298 297 296 294 293 292 290 289 288 287 286
320 320 320 320 320 320 320 321 321 321 321 322 322 323 323 324 324 324 325 325 325 325 325 325 325 324 324 324 324 324 323 323 323 323 323 323 322 322 322 322 322 322 321 321 320 320 319 319 318 318 317 317 316 316 316 315 314 314 313 312 312 311 310 310 309 308 307 307 306 305 304 303 302 301 300 299 298 297 296 294 293 292 290 289 288 287
320 319 319 319 320 320 320 320 321 321 321 322 322 323 323 324 324 324 325 325 325 325 325 325 324 324 324 324 324 323 323 323 323 323 323 323 323 323 322 322 322 322 321 321 320 320 319 319 318 318 318 317 317 316 316 315 315 314 313 313 312 312 311 310 310 309 308 308 307 306 305 304 303 302 301 300 299 298 297 296 294 293 292 291 289 288
319 319 319 319 319 320 320 320 321 321 321 322 322 323 323 324 324 324 324 324 325 325 325 324 324 324 324 324 323 323 323 323 323 323 323 323 323 323 322 322 322 321 321 321 320 320 319 319 318 318 318 317 317 316 316 315 315 314 314 313 313 312 312 311 310 310 309 309 308 307 306 305 304 303 302 301 300 299 298 297 296 295 294 292 291 289
319 319 319 319 319 319 320 320 321 321 321 322 323 323 323 324 324 324 324 324 324 324 324 324 324 324 324 324 323 323 323 323 323 323 323 323 323 323 322 322 322 321 321 320 320 320 319 319 318 318 318 317 317 316 316 315 315 314 314 314 313 313 312 312 311 311 310 309 308 308 307 306 305 304 303 302 301 300 299 298 297 296 295 294 293 291
318 318 318 319 319 319 320 320 321 321 322 322 323 323 323 324 324 324 324 324 324 324 324 324 324 324 324 323 323 323 323 323 323 323 323 323 322 322 322 322 321 321 320 320 320 319 319 319 318 318 318 317 317 316 316 316 315 315 315 314 314 313 313 312 312 311 310 310 309 308 308 307 306 305 304 303 302 301 300 299 298 297 296 295 294 293
318 318 318 319 319 319 320 320 321 321 322 322 323 323 323 324 324 324 324 324 324 324 324 324 324 324 323 323 323 323 323 323 323 323 322 322 322 322 322 321 321 320 320 320 319 319 319 319 318 318 318 317 317 317 316 316 316 315 315 315 314 314 313 313 312 312 311 310 310 309 308 308 307 306 305 304 303 302 301 300 299 298 297 296 295 294
317 318 318 318 319 319 320 320 320 321 322 322 322 323 323 324 324 324 324 324 324 324 324 324 323 323 323 323 323 323 323 323 322 322 322 322 322 322 321 321 320 320 320 320 319 319 319 319 318 318 318 317 317 317 317 316 316 316 316 315 315 314 314 313 313 312 311 311 310 310 309 308 308 307 306 305 304 303 302 302 300 299 298 297 296 295
317 317 318 318 319 319 319 320 321 321 322 322 323 323 323 323 324 324 324 324 324 324 324 323 323 323 323 323 323 323 323 322 322 322 322 322 321 321 321 320 320 320 320 320 319 319 319 319 318 318 318 318 317 317 317 317 317 316 316 316 315 315 314 314 313 312 312 311 311 310 310 309 309 308 307 306 306 305 304 303 302 301 300 299 297 296
317 317 318 318 318 319 319 320 321 321 322 322 322 323 323 323 323 324 324 324 324 324 323 323 323 323 322 323 323 323 322 322 322 322 321 321 321 321 321 320 320 320 320 320 319 319 319 319 318 318 318 318 318 318 317 317 317 317 317 316 316 315 315 314 313 313 312 312 312 311 311 310 310 309 308 308 307 306 305 304 303 302 301 300 299 297
317 317 318 318 319 319 320 320 321 321 322 322 323 323 323 323 323 323 323 323 323 323 323 323 322 322 322 322 322 322 322 322 322 321 321 321 321 321 321 320 320 320 320 320 319 319 319 319 318 318 318 318 318 318 318 318 318 317 317 316 316 315 315 314 314 313 313 313 312 312 311 311 311 310 309 308 308 307 306 305 304 303 302 301 299 298
317 317 318 318 319 319 320 320 321 322 322 322 322 323 323 323 323 323 323 323 323 323 322 322 322 322 322 322 322 322 322 322 321 321 321 321 321 321 321 320 320 320 320 320 320 319 319 319 319 319 319 319 319 319 318 318 318 318 317 317 316 316 315 315 314 314 314 313 313 313 312 311 311 310 310 309 308 307 307 306 305 303 302 301 300 299
317 317 318 318 319 319 320 320 321 322 322 322 322 322 322 323 323 323 323 323 322 322 322 322 322 322 322 322 322 322 322 322 321 321 321 321 321 321 321 321 320 320 320 320 320 320 319 319 319 319 319 319 319 319 319 319 318 318 318 317 317 316 316 316 315 315 314 314 313 313 312 312 311 311 310 309 308 308 307 306 305 304 303 301 300 299
317 317 318 318 319 319 320 321 321 321 322 322 322 322 322 323 323 323 323 323 322 322 322 322 322 322 322 322 322 322 322 322 321 321 321 321 321 321 321 321 321 320 320 320 320 320 320 320 320 320 320 320 320 320 319 319 319 318 318 318 317 317 317 316 316 315 315 314 314 313 312 312 311 311 310 309 308 308 307 306 305 304 303 302 300 299
317 317 318 318 319 319 320 321 321 321 321 322 322 322 322 323 323 323 323 322 322 322 322 322 322 322 322 322 322 322 322 322 321 321 321 321 321 321 321 321 321 321 321 321 320 320 320 320 320 320 320 320 320 320 320 320 319 319 319 318 318 318 317 317 316 316 315 314 314 313 312 312 311 310 310 309 309 308 307 306 305 304 303 302 301 299
317 317 318 318 319 319 320 320 321 321 321 322 322 322 322 322 323 323 322 322 322 322 322 322 322 322 322 322 322 322 322 322 321 321 321 321 321 321 321 321 321 321 321 321 321 321 321 321 321 321 321 321 321 321 320 320 320 320 319 319 319 318 318 317 316 316 315 314 314 313 312 312 311 310 310 309 309 308 308 307 306 305 304 303 301 300
317 317 318 318 319 319 320 320 321 321 321 322 322 322 322 322 322 322 322 322 322 322 322 322 322 322 322 322 322 322 322 322 321 321 321 321 321 322 322 321 321 321 321 321 321 321 321 321 321 321 321 321 321 321 321 320 320 320 320 319 319 319 318 317 317 316 315 314 314 313 312 312 311 311 310 310 309 309 308 307 307 306 305 303 302 301
317 317 318 318 319 319 320 320 321 321 321 322 322 322 322 322 322 322 322 322 322 322 322 322 322 322 322 322 322 322 322 322 322 322 322 322 322 322 322 322 322 322 322 322 322 322 322 322 322 322 322 321 321 321 321 320 320 320 320 319 319 318 318 317 317 316 315 315 314 313 313 312 312 311 311 311 310 310 309 308 308 307 306 305 304 302
317 318 318 319 319 319 320 320 321 321 321 322 322 322 322 322 322 322 322 322 322 322 322 322 322 322 322 322 322 322 322 322 322 322 322 322 322 322 322 322 322 322 322 322 322 322 322 322 322 322 322 321 321 321 321 320 320 320 320 319 319 318 318 317 316 316 315 315 314 314 313 313 313 312 312 311 311 311 310 309 308 307 306 306 304 303
317 318 318 319 319 319 320 320 321 321 321 322 322 322 322 322 322 322 322 322 322 322 322 322 322 322 322 322 322 322 322 322 322 322 322 322 322 322 322 322 322 322 322 323 323 323 322 322 322 322 322 322 321 321 321 320 320 320 319 319 319 318 318 317 316 316 316 315 315 315 314 314 313 313 313 312 312 311 311 310 309 308 307 306 305 304
317 318 318 319 319 319 320 320 321 321 321 322 322 322 322 322 322 322 322 322 322 322 322 322 322 322 322 322 322 322 322 322 322 322 322 322 322 322 322 322 322 323 323 323 323 323 323 322 322 322 322 321 321 321 321 320 320 320 319 319 318 318 318 317 317 316 316 316 315 315 315 314 314 313 313 313 312 312 311 311 310 309 308 307 306 305
317 318 318 319 319 319 320 320 321 321 321 322 322 322 322 322 322 322 322 322 322 322 322 322 322 322 322 322 322 322 322 323 323 323 323 323 323 323 323 323 323 323 323 323 323 323 323 323 322 322 322 321 321 321 321 320 320 320 319 319 318 318 318 317 317 317 316 316 316 315 315 314 314 314 313 313 312 312 312 311 310 310 309 308 307 306
317 318 318 318 319 319 320 320 321 321 321 322 322 322 322 322 322 322 322 322 322 322 322 322 322 322 322 322 322 323 323 323 323 323 323 323 323 323 323 323 323 323 323 323 323 323 323 323 322 322 322 322 321 321 321 320 320 320 319 319 319 318 318 318 317 317 317 316 316 316 315 315 314 314 313 313 313 312 312 311 311 310 309 308 307 306
317 318 318 318 319 319 320 320 321 321 321 322 322 322 322 322 322 322 322 322 322 322 322 322 322 322 322 323 323 323 323 323 323 323 323 323 323 323 323 324 324 324 324 324 324 323 323 323 323 322 322 322 321 321 321 320 320 320 319 319 319 319 318 318 318 317 317 317 316 316 315 315 315 314 314 313 313 312 312 311 311 310 309 309 307 307
317 318 318 318 319 319 320 320 321 321 322 322 322 322 322 322 322 322 322 322 322 322 322 322 322 323 323 323 323 323 324 324 324 324 324 324 324 324 324 324 324 324 324 324 324 324 323 323 323 322 322 322 321 321 321 320 320 320 319 319 319 319 318 318 318 318 317 317 317 316 316 315 315 314 314 313 313 313 312 311 311 310 310 309 308 307
317 317 318 318 319 319 320 320 321 321 322 322 322 322 322 322 322 322 322 322 322 322 322 323 323 323 323 323 324 324 324 324 324 324 324 324 324 324 325 325 325 324 324 324 324 324 324 323 323 323 322 322 322 321 321 321 320 320 320 320 319 319 319 318 318 318 318 317 317 316 316 315 315 315 314 314 313 312 312 312 311 310 310 309 308 307
317 318 318 318 319 319 320 321 321 322 322 322 322 322 322 322 322 322 322 322 322 323 323 323 323 323 323 324 324 324 325 325 325 325 325 325 325 325 325 325 325 325 325 324 324 324 324 324 323 323 323 322 322 321 321 321 320 320 320 320 319 319 319 319 318 318 318 317 317 316 316 315 315 315 314 314 313 312 312 311 311 310 310 309 308 307
317 318 318 318 319 320 320 321 321 322 322 322 322 322 322 322 322 322 322 322 323 323 323 323 323 324 324 324 324 325 325 325 325 325 325 325 325 325 325 325 325 325 325 325 324 324 324 324 324 323 323 322 322 322 321 321 321 320 320 320 319 319 319 319 318 318 317 317 317 316 316 315 315 315 314 314 313 312 312 311 311 310 310 309 308 308
317 318 318 319 319 320 321 321 321 322 322 322 322 322 322 322 322 322 322 322 323 323 323 323 324 324 324 324 325 325 325 325 326 326 326 326 326 326 326 326 325 325 325 325 325 325 325 324 324 324 323 323 322 322 322 321 321 321 320 320 320 319 319 319 318 318 318 317 317 316 316 315 315 314 314 314 313 313 312 312 311 310 310 309 308 308
317 318 318 319 319 320 321 321 321 322 322 322 322 322 322 322 322 322 323 323 323 323 324 324 324 324 325 325 325 325 326 326 326 326 326 326 326 326 326 326 326 326 326 325 325 325 325 325 324 324 324 323 323 323 322 322 321 321 321 320 320 320 319 319 318 318 318 317 317 316 316 315 315 314 314 313 313 312 312 312 311 310 310 309 309 308
317 318 318 319 320 320 321 321 321 322 322 322 322 322 322 322 322 323 323 323 323 324 324 324 324 325 325 325 326 326 326 326 326 327 327 327 327 326 326 326 326 326 326 326 326 326 326 325 325 325 324 324 324 323 323 322 322 322 321 321 320 320 320 319 319 318 318 317 317 316 316 315 315 314 314 313 313 312 312 312 311 311 310 309 309 308
317 317 318 319 320 320 321 321 321 322 322 322 322 322 322 322 323 323 323 323 324 324 324 325 325 325 326 326 326 326 326 326 327 327 327 327 327 327 327 327 327 327 327 327 327 326 326 326 326 325 325 325 324 324 323 323 323 322 322 321 321 320 320 320 319 319 318 318 317 317 316 315 315 314 314 313 313 313 312 312 311 311 310 310 309 309
317 317 318 319 320 320 321 321 321 322 322 322 322 322 322 323 323 323 323 324 324 324 325 325 325 326 326 326 326 326 327 327 327 327 327 327 327 327 327 327 327 327 327 327 327 327 327 326 326 326 326 325 325 324 324 324 323 323 322 322 322 321 321 321 320 319 319 318 318 317 316 316 315 314 314 314 313 313 312 312 312 311 311 310 310 309
317 318 318 319 320 320 321 321 321 322 322 322 322 322 323 323 323 323 324 324 324 325 325 326 326 326 326 327 327 327 327 327 327 327 327 328 328 328 328 328 328 328 328 328 328 327 327 327 326 326 326 326 325 325 325 324 324 324 323 323 323 322 322 321 321 320 319 319 318 317 317 316 316 315 314 314 314 313 313 313 312 312 311 310 310 310
317 318 319 319 320 320 321 321 322 322 322 322 322 323 323 323 323 324 324 324 325 325 326 326 326 327 327 327 327 327 328 328 328 328 328 328 328 328 328 328 328 328 328 328 328 328 327 327 327 327 326 326 326 326 325 325 325 325 324 324 324 323 322 322 322 321 320 320 319 318 318 317 316 316 315 315 314 314 313 313 313 312 312 311 311 311
317 318 319 319 320 321 321 322 322 322 322 323 323 323 323 323 324 324 324 325 325 326 326 326 327 327 327 327 328 328 328 328 328 328 329 329 329 329 329 329 329 329 329 329 328 328 328 328 328 327 327 327 327 327 327 326 326 326 325 325 325 324 324 323 323 322 321 321 320 319 319 318 318 317 317 316 316 315 315 315 314 313 313 313 312 312
318 318 319 320 320 321 321 322 322 322 323 323 323 323 324 324 324 325 325 325 326 326 327 327 327 328 328 328 328 328 328 329 329 329 329 329 329 329 329 329 329 329 329 329 329 329 328 328 328 328 328 328 328 328 328 328 327 327 327 326 326 326 325 324 324 323 323 322 322 321 321 320 320 319 319 318 318 317 317 316 315 315 314 314 313 313
318 319 319 320 321 321 322 322 322 323 323 323 323 324 324 324 325 325 326 326 326 327 327 328 328 328 328 328 329 329 329 329 329 329 330 330 330 330 330 330 330 330 330 330 329 329 329 329 329 329 329 329 329 329 329 329 329 329 328 328 328 327 327 326 326 325 324 324 324 323 323 323 322 322 321 321 320 320 319 318 318 317 316 316 315 314
318 319 319 320 321 321 322 322 323 323 323 323 324 324 324 325 325 326 326 327 327 327 328 328 328 329 329 329 329 329 329 330 330 330 330 330 330 330 330 330 330 330 330 330 330 330 330 330 330 330 330 330 330 330 330 330 330 330 330 329 329 328 328 328 327 327 326 326 326 325 325 325 325 324 324 323 323 322 321 321 320 320 319 318 317 317
318 319 320 320 321 322 322 323 323 323 323 324 324 325 325 325 326 326 327 327 328 328 328 328 329 329 329 329 330 330 330 330 330 330 330 330 331 331 331 331 331 331 331 331 331 331 331 331 331 331 332 332 332 332 332 332 332 332 331 331 331 330 330 329 329 329 328 328 328 328 328 328 327 327 327 326 326 325 324 323 322 322 321 321 320 320
319 319 320 321 321 322 323 323 323 323 324 324 325 325 326 326 327 327 327 328 328 328 329 329 329 329 330 330 330 330 330 330 331 331 331 331 331 331 331 331 331 331 331 332 332 332 332 332 333 333 333 333 334 334 333 333 333 333 333 333 332 332 331 331 331 331 331 331 330 330 330 330 330 330 329 329 328 328 327 326 325 324 323 322 322 322
319 319 320 321 322 322 323 323 323 324 324 325 325 326 326 327 327 328 328 328 329 329 329 329 330 330 330 330 330 331 331 331 331 331 331 331 332 332 332 332 332 332 332 332 333 333 333 334 334 334 335 335 335 335 335 335 335 335 335 334 334 333 333 333 333 333 333 333 333 333 333 333 333 333 332 332 331 330 329 328 327 326 325 324 323 324
319 320 321 322 322 323 323 324 324 324 325 326 326 327 327 327 328 328 329 329 329 329 330 330 330 331 331 331 331 331 331 331 332 332 332 332 332 332 332 333 333 333 333 334 334 334 335 335 336 336 336 337 337 337 337 337 337 337 336 336 336 336 335 335 335 335 336 336 336 336 337 337 336 336 335 334 333 332 330 329 327 327 326 325 325 324
319 320 321 322 323 323 324 324 325 325 326 326 327 327 328 328 329 329 329 329 330 330 330 331 331 331 331 331 331 331 332 332 332 332 332 333 333 333 333 333 334 334 335 335 336 336 336 337 337 338 338 339 339 339 339 339 339 339 339 338 338 338 338 338 338 338 339 339 340 340 340 340 339 338 338 337 335 334 332 330 329 327 326 326 325 324
320 321 322 323 323 324 324 325 325 326 327 327 327 328 328 329 329 330 330 330 330 330 331 331 332 332 332 332 332 332 332 332 333 333 333 333 333 334 334 334 335 335 336 336 337 338 338 339 339 339 340 340 341 341 341 341 341 341 341 341 341 341 341 341 342 342 342 343 344 344 344 344 343 342 341 340 338 336 334 332 330 329 328 327 326 325
321 322 323 323 324 325 325 326 326 327 327 328 328 329 329 330 330 330 330 330 331 331 332 332 332 332 332 332 332 332 333 333 333 333 334 334 334 335 335 335 336 336 337 338 338 339 339 340 341 341 342 342 343 343 343 343 343 343 343 344 344 344 344 345 345 345 346 347 347 348 348 347 346 345 344 343 341 339 337 335 333 331 330 329 328 327
321 323 323 324 325 325 326 326 327 328 328 329 329 330 330 330 330 330 330 331 331 332 332 332 333 333 333 332 333 333 333 334 334 334 334 335 335 335 336 336 337 337 338 339 339 340 341 341 342 343 343 344 344 345 345 345 345 346 346 346 347 347 348 348 348 349 349 350 351 351 351 351 350 349 348 345 343 341 339 337 336 334 333 332 331 328
322 323 324 325 325 326 327 327 328 328 329 329 330 330 330 331 331 331 331 331 332 332 333 333 333 333 333 333 333 334 334 334 335 335 335 335 336 336 337 337 338 339 339 340 341 341 342 342 343 344 345 345 346 346 347 347 347 348 348 349 350 350 351 351 351 352 352 353 354 354 354 354 353 352 350 349 346 344 342 340 339 338 338 337 335 333
323 324 325 326 326 327 327 328 329 329 330 330 330 331 331 331 331 331 332 332 332 333 333 333 333 333 333 334 334 334 335 335 335 336 336 336 336 337 338 338 339 340 341 341 342 342 343 343 344 345 346 346 347 347 348 348 349 350 350 351 352 352 353 353 353 354 355 356 356 356 356 356 355 354 353 351 349 347 345 344 343 343 343 341 341 339
324 325 326 326 327 328 328 329 330 330 330 331 331 331 332 332 332 332 332 333 333 333 334 334 334 334 334 334 334 335 335 336 336 336 337 337 337 338 338 339 340 341 342 342 343 343 344 344 345 345 346 347 348 348 349 350 350 351 352 353 353 353 354 354 355 355 356 357 358 358 358 358 357 356 355 354 352 350 348 348 347 347 347 346 345 343
325 325 326 327 328 328 329 330 330 331 331 332 332 332 332 332 332 332 333 333 334 334 334 334 334 334 334 335 335 336 336 336 337 337 337 338 338 339 339 340 341 342 343 343 344 344 344 345 345 346 347 348 349 350 350 351 352 352 353 354 354 354 354 355 355 356 357 358 359 359 359 359 359 359 358 357 355 354 352 351 351 351 350 350 350 349
Height
10503 10499 10494 10489 10484 10479 10472 10468 10463 10458 10452 10444 10438 10431 10424 10418 10411 10404 10397 10391 10384 10378 10371 10364 10356 10349 10342 10336 10329 10321 10314 10306 10299 10292 10284 10278 10270 10264 10258 10252 10246 10240 10234 10228 10223 10217 10211 10205 10199 10193 10187 10181 10176 10171 10166 10161 10156 10152 10148 10143 10139 10135 10131 10128 10124 10120 10118 10115 10112 10109 10106 10103 10100 10098 10095 10093 10091 10088 10086 10084 10083 10081 10079 10078 10077 10076
10497 10492 10487 10483 10478 10473 10467 10461 10456 10451 10446 10439 10433 10426 10418 10411 10404 10396 10389 10383 10376 10369 10363 10357 10349 10342 10334 10327 10321 10314 10306 10298 10291 10283 10276 10269 10262 10255 10249 10243 10237 10231 10225 10219 10213 10208 10201 10196 10189 10184 10178 10173 10167 10162 10157 10153 10148 10143 10139 10134 10131 10127 10123 10120 10116 10113 10110 10107 10104 10102 10099 10096 10093 10091 10088 10086 10083 10081 10079 10077 10075 10074 10072 10071 10070 10069
10492 10486 10481 10476 10471 10466 10461 10456 10450 10444 10439 10433 10427 10420 10413 10406 10398 10391 10384 10377 10370 10363 10356 10349 10342 10334 10326 10319 10313 10306 10299 10291 10283 10274 10267 10260 10253 10246 10240 10234 10228 10221 10215 10209 10203 10198 10192 10186 10181 10175 10169 10164 10159 10154 10149 10144 10139 10135 10131 10127 10123 10119 10116 10113 10109 10106 10103 10099 10097 10095 10093 10090 10087 10084 10082 10079 10076 10074 10072 10070 10068 10066 10066 10064 10064 10063
10487 10482 10476 10470 10464 10459 10454 10449 10444 10438 10432 10426 10420 10414 10407 10399 10392 10384 10378 10371 10364 10356 10349 10342 10334 10327 10319 10311 10304 10297 10290 10282 10274 10266 10258 10251 10244 10238 10231 10224 10218 10212 10206 10200 10194 10189 10184 10178 10173 10167 10162 10157 10152 10147 10142 10138 10133 10128 10124 10120 10116 10112 10109 10105 10102 10099 10096 10093 10090 10088 10086 10083 10081 10078 10076 10073 10071 10068 10066 10064 10062 10061 10059 10058 10058 10056
10481 10476 10471 10466 10460 10454 10448 10442 10437 10431 10425 10418 10412 10406 10400 10393 10386 10379 10371 10364 10356 10349 10341 10334 10327 10319 10312 10303 10295 10288 10281 10273 10266 10258 10249 10243 10236 10229 10223 10216 10210 10204 10198 10193 10187 10181 10176 10171 10165 10160 10155 10150 10145 10141 10136 10131 10126 10121 10118 10113 10109 10106 10102 10099 10095 10092 10089 10086 10084 10081 10079 10077 10074 10072 10069 10068 10065 10063 10061 10059 10056 10054 10053 10052 10051 10049
10474 10471 10466 10461 10455 10449 10443 10437 10431 10425 10419 10412 10405 10399 10393 10387 10381 10373 10366 10358 10349 10341 10333 10325 10318 10311 10305 10297 10289 10280 10271 10264 10257 10250 10243 10236 10229 10223 10217 10210 10203 10197 10191 10186 10180 10174 10169 10163 10158 10153 10148 10143 10139 10134 10129 10124 10120 10116 10111 10108 10103 10099 10096 10093 10089 10086 10083 10080 10078 10075 10073 10071 10068 10066 10064 10062 10060 10058 10056 10054 10052 10049 10048 10046 10045 10044
10469 10464 10459 10455 10449 10443 10437 10431 10426 10421 10414 10407 10399 10393 10385 10378 10372 10366 10359 10352 10344 10335 10326 10317 10308 10301 10296 10290 10283 10275 10266 10257 10249 10243 10236 10230 10224 10218 10211 10204 10198 10191 10185 10179 10173 10168 10162 10156 10151 10146 10141 10137 10132 10128 10123 10118 10114 10110 10106 10101 10098 10094 10090 10087 10084 10081 10078 10074 10072 10069 10068 10065 10063 10061 10059 10056 10054 10053 10051 10049 10047 10045 10043 10041 10040 10039
10465 10459 10454 10449 10444 10438 10431 10424 10419 10414 10409 10403 10395 10388 10379 10371 10363 10355 10349 10343 10338 10330 10322 10312 10302 10293 10286 10281 10276 10270 10261 10252 10244 10237 10231 10224 10218 10213 10206 10199 10192 10185 10179 10173 10167 10161 10155 10149 10144 10139 10135 10131 10126 10121 10117 10113 10109 10104 10100 10096 10093 10088 10085 10081 10078 10075 10072 10069 10067 10064 10062 10059 10058 10056 10053 10051 10049 10048 10046 10044 10042 10040 10039 10037 10036 10034
10461 10456 10449 10444 10439 10434 10428 10421 10413 10408 10402 10396 10389 10382 10376 10368 10358 10348 10339 10333 10328 10323 10317 10309 10300 10291 10282 10274 10268 10263 10256 10248 10239 10231 10226 10219 10214 10207 10200 10193 10186 10179 10173 10167 10161 10155 10149 10144 10139 10134 10129 10124 10120 10116 10112 10108 10104 10099 10095 10091 10088 10083 10080 10076 10073 10070 10067 10064 10062 10059 10057 10054 10053 10051 10048 10046 10044 10043 10041 10039 10038 10036 10034 10033 10031 10030
10455 10450 10445 10439 10433 10428 10423 10417 10410 10403 10396 10389 10381 10374 10369 10364 10357 10348 10338 10328 10320 10314 10309 10303 10296 10288 10280 10271 10263 10256 10249 10241 10233 10226 10219 10214 10208 10202 10194 10188 10181 10174 10168 10161 10155 10149 10143 10138 10133 10128 10124 10119 10115 10111 10107 10103 10099 10094 10091 10087 10083 10079 10075 10072 10068 10065 10063 10059 10057 10054 10052 10050 10048 10046 10044 10042 10040 10038 10036 10034 10033 10031 10030 10028 10027 10026
10450 10444 10439 10433 10427 10421 10416 10410 10404 10398 10391 10384 10376 10367 10360 10355 10350 10344 10336 10326 10318 10310 10303 10294 10288 10281 10276 10268 10259 10251 10243 10235 10227 10219 10213 10207 10201 10195 10188 10181 10174 10168 10162 10156 10149 10144 10138 10133 10128 10123 10118 10114 10110 10106 10102 10098 10094 10090 10086 10083 10079 10075 10071 10068 10064 10061 10058 10055 10053 10050 10048 10045 10043 10041 10039 10037 10036 10034 10032 10030 10029 10027 10026 10024 10023 10021
10444 10439 10433 10427 10421 10415 10409 10403 10396 10390 10384 10378 10370 10362 10353 10346 10341 10337 10331 10323 10314 10306 10299 10290 10281 10273 10268 10261 10254 10246 10237 10229 10221 10213 10206 10201 10194 10188 10181 10174 10168 10161 10156 10149 10144 10138 10133 10127 10122 10118 10113 10109 10104 10101 10097 10093 10089 10086 10082 10078 10074 10071 10067 10064 10060 10057 10054 10051 10048 10046 10043 10041 10039 10037 10035 10033 10031 10029 10028 10026 10024 10023 10022 10020 10019 10018
10438 10433 10426 10421 10415 10409 10404 10398 10391 10384 10378 10372 10366 10358 10349 10342 10336 10331 10324 10316 10308 10300 10293 10284 10275 10266 10259 10254 10247 10238 10229 10221 10214 10207 10200 10194 10189 10182 10174 10167 10161 10155 10149 10143 10138 10132 10127 10121 10116 10112 10108 10103 10099 10096 10091 10088 10084 10081 10077 10074 10070 10067 10063 10060 10056 10053 10050 10048 10044 10042 10039 10037 10035 10033 10031 10029 10027 10026 10024 10022 10021 10019 10018 10016 10015 10014
10433 10427 10421 10414 10409 10404 10399 10393 10387 10379 10372 10366 10360 10353 10345 10338 10330 10324 10317 10309 10300 10292 10284 10277 10268 10259 10251 10246 10240 10233 10223 10214 10206 10199 10193 10187 10182 10176 10169 10161 10155 10149 10144 10138 10132 10126 10121 10116 10111 10106 10102 10098 10094 10090 10086 10083 10079 10076 10073 10069 10066 10063 10059 10056 10053 10049 10046 10044 10041 10038 10036 10033 10031 10029 10027 10025 10023 10021 10020 10018 10017 10015 10014 10013 10011 10010
10428 10422 10416 10410 10404 10399 10394 10389 10383 10375 10367 10360 10353 10346 10339 10331 10323 10315 10308 10300 10292 10284 10277 10269 10261 10251 10243 10236 10231 10226 10218 10208 10199 10193 10186 10180 10174 10169 10163 10155 10149 10143 10138 10133 10126 10121 10116 10111 10106 10101 10097 10093 10089 10085 10081 10078 10074 10071 10068 10064 10061 10058 10055 10052 10049 10046 10043 10040 10037 10034 10032 10029 10028 10025 10023 10021 10019 10018 10016 10014 10013 10012 10010 10009 10008 10006
10423 10418 10411 10405 10399 10393 10388 10383 10377 10370 10363 10354 10347 10340 10333 10326 10318 10309 10301 10293 10285 10278 10270 10263 10256 10247 10237 10228 10222 10218 10212 10203 10194 10187 10181 10174 10168 10162 10156 10149 10143 10137 10132 10127 10121 10116 10111 10106 10101 10096 10092 10088 10084 10081 10077 10073 10069 10066 10063 10060 10057 10054 10051 10048 10045 10043 10039 10036 10034 10031 10029 10026 10024 10022 10020 10018 10016 10015 10013 10011 10010 10008 10007 10006 10004 10003
10418 10413 10406 10400 10393 10388 10382 10376 10371 10364 10356 10348 10341 10333 10326 10319 10311 10304 10295 10287 10279 10271 10263 10256 10249 10242 10234 10224 10216 10209 10204 10197 10189 10181 10174 10168 10161 10156 10150 10144 10138 10131 10126 10121 10116 10111 10106 10101 10096 10092 10088 10084 10080 10076 10073 10069 10066 10063 10059 10056 10053 10050 10047 10044 10041 10039 10036 10033 10031 10028 10025 10023 10021 10019 10017 10015 10013 10012 10010 10009 10007 10006 10004 10003 10001 10000
10412 10406 10401 10394 10388 10381 10376 10371 10365 10358 10350 10342 10334 10326 10318 10311 10303 10296 10288 10279 10272 10264 10257 10250 10243 10236 10229 10221 10212 10204 10199 10192 10184 10176 10169 10162 10156 10150 10144 10138 10132 10127 10122 10116 10111 10106 10101 10096 10092 10088 10084 10079 10076 10072 10069 10065 10062 10059 10056 10053 10049 10046 10043 10040 10038 10035 10032 10029 10027 10024 10023 10020 10018 10016 10014 10013 10011 10009 10008 10006 10004 10003 10001 10000 9999 9998
10406 10400 10394 10389 10383 10376 10369 10364 10359 10353 10346 10338 10329 10321 10313 10305 10298 10289 10281 10273 10266 10258 10251 10244 10237 10230 10223 10215 10207 10200 10193 10186 10179 10171 10164 10157 10151 10144 10139 10133 10127 10122 10117 10112 10107 10102 10097 10093 10088 10084 10080 10076 10072 10069 10065 10061 10058 10055 10052 10049 10046 10043 10039 10037 10034 10031 10029 10026 10024 10022 10019 10017 10015 10013 10011 10009 10008 10006 10005 10004 10002 10000 9999 9998 9996 9994
10399 10393 10388 10383 10378 10371 10364 10357 10352 10346 10340 10333 10324 10316 10308 10299 10291 10283 10274 10267 10259 10252 10245 10238 10231 10224 10216 10209 10201 10194 10188 10181 10173 10165 10158 10151 10146 10140 10134 10128 10123 10118 10113 10108 10103 10098 10093 10089 10084 10081 10076 10073 10069 10065 10061 10058 10055 10052 10049 10046 10043 10039 10036 10034 10031 10028 10026 10023 10021 10019 10016 10014 10013 10011 10009 10007 10005 10004 10003 10001 9999 9998 9996 9995 9993 9992
10394 10388 10381 10376 10371 10366 10359 10352 10346 10340 10334 10327 10319 10310 10301 10293 10284 10275 10266 10259 10252 10244 10238 10231 10224 10218 10211 10203 10196 10188 10182 10176 10168 10160 10153 10146 10141 10136 10130 10124 10118 10113 10109 10104 10099 10094 10090 10085 10081 10077 10073 10069 10066 10062 10058 10055 10052 10049 10045 10043 10039 10036 10033 10031 10028 10025 10023 10020 10018 10016 10014 10012 10009 10008 10006 10004 10003 10001 9999 9998 9997 9996 9994 9993 9991 9990
10389 10383 10376 10369 10364 10359 10353 10346 10340 10334 10328 10321 10314 10306 10297 10288 10280 10271 10262 10253 10246 10238 10231 10224 10218 10212 10206 10199 10192 10184 10178 10171 10164 10156 10149 10143 10136 10131 10126 10120 10114 10109 10105 10100 10096 10091 10086 10082 10078 10074 10070 10066 10062 10059 10055 10051 10048 10045 10042 10039 10036 10033 10031 10028 10025 10023 10020 10018 10015 10013 10011 10009 10007 10005 10003 10001 10000 9998 9997 9996 9994 9993 9991 9990 9989 9988
10383 10377 10370 10364 10358 10353 10346 10340 10334 10328 10321 10314 10307 10299 10291 10283 10275 10267 10259 10250 10242 10234 10227 10220 10213 10206 10200 10194 10187 10180 10173 10166 10159 10152 10145 10139 10133 10127 10121 10116 10110 10105 10101 10097 10092 10088 10083 10079 10074 10070 10066 10063 10059 10055 10052 10048 10045 10042 10039 10036 10033 10030 10028 10025 10022 10019 10017 10015 10013 10010 10008 10006 10004 10003 10001 9999 9998 9996 9994 9993 9992 9991 9989 9988 9986 9985
10378 10371 10364 10358 10353 10346 10340 10334 10328 10321 10314 10308 10300 10291 10283 10275 10267 10259 10252 10244 10236 10229 10221 10214 10206 10199 10193 10186 10179 10173 10167 10161 10154 10147 10140 10134 10128 10123 10118 10112 10106 10101 10096 10093 10089 10084 10079 10075 10071 10067 10063 10059 10056 10052 10048 10045 10042 10038 10036 10033 10029 10027 10024 10022 10019 10017 10014 10012 10010 10008 10006 10004 10002 10000 9998 9996 9995 9993 9992 9991 9989 9988 9986 9985 9984 9983
10372 10366 10359 10353 10347 10341 10334 10328 10321 10314 10308 10301 10293 10284 10276 10267 10259 10251 10243 10236 10229 10221 10213 10206 10199 10192 10186 10180 10173 10166 10161 10154 10149 10142 10135 10129 10123 10118 10114 10108 10103 10097 10092 10088 10084 10081 10076 10072 10068 10064 10060 10056 10053 10049 10045 10042 10039 10036 10033 10029 10027 10024 10021 10019 10016 10014 10012 10009 10007 10005 10003 10001 9999 9998 9996 9994 9993 9991 9989 9988 9987 9986 9984 9983 9981 9980
10366 10359 10353 10347 10341 10334 10328 10321 10314 10307 10300 10293 10286 10277 10269 10260 10251 10243 10234 10228 10221 10214 10206 10199 10191 10184 10178 10173 10167 10160 10154 10148 10142 10136 10130 10124 10118 10113 10109 10104 10099 10093 10088 10084 10081 10076 10072 10068 10064 10060 10056 10053 10049 10046 10043 10039 10036 10033 10029 10027 10024 10021 10019 10016 10014 10011 10009 10007 10004 10003 10000 9998 9996 9995 9993 9992 9990 9989 9988 9986 9984 9983 9982 9981 9979 9978
10359 10353 10346 10340 10334 10328 10322 10314 10308 10300 10293 10286 10278 10270 10263 10254 10245 10236 10227 10220 10214 10208 10200 10193 10186 10178 10171 10165 10159 10154 10148 10142 10136 10131 10125 10119 10114 10109 10104 10099 10095 10090 10085 10081 10076 10073 10069 10064 10061 10057 10053 10049 10046 10043 10039 10036 10033 10029 10027 10024 10021 10018 10016 10013 10011 10008 10006 10004 10002 9999 9998 9996 9994 9993 9991 9989 9988 9986 9985 9984 9983 9981 9980 9979 9978 9976
10353 10347 10340 10334 10328 10323 10316 10309 10301 10294 10287 10279 10272 10264 10256 10248 10239 10231 10222 10214 10208 10201 10194 10188 10181 10173 10166 10159 10154 10148 10143 10137 10131 10126 10120 10115 10109 10104 10100 10095 10091 10087 10082 10078 10073 10069 10066 10061 10058 10053 10049 10046 10043 10039 10036 10033 10030 10027 10024 10021 10018 10016 10013 10011 10008 10006 10003 10001 9999 9997 9995 9993 9991 9989 9988 9986 9985 9984 9983 9981 9980 9979 9978 9976 9975 9974
10346 10340 10334 10328 10322 10317 10311 10304 10296 10289 10281 10274 10266 10258 10250 10242 10234 10226 10218 10210 10203 10196 10189 10183 10176 10169 10161 10154 10148 10143 10138 10133 10127 10121 10116 10110 10105 10100 10096 10091 10087 10083 10078 10074 10069 10066 10063 10059 10054 10050 10046 10043 10039 10036 10033 10030 10027 10024 10021 10018 10016 10013 10010 10008 10005 10003 10001 9998 9996 9994 9993 9991 9989 9987 9986 9984 9983 9981 9980 9979 9978 9977 9976 9974 9973 9973
10339 10333 10326 10321 10315 10310 10304 10298 10291 10283 10276 10268 10261 10253 10244 10236 10229 10221 10213 10206 10198 10191 10184 10178 10171 10164 10157 10149 10143 10136 10131 10127 10123 10117 10111 10106 10100 10096 10091 10086 10083 10078 10074 10070 10066 10061 10058 10055 10051 10048 10043 10039 10036 10033 10029 10026 10023 10021 10018 10015 10013 10010 10008 10005 10003 10000 9998 9996 9994 9991 9989 9988 9986 9984 9983 9982 9980 9979 9978 9977 9976 9974 9973 9973 9971 9971
10334 10328 10322 10316 10310 10305 10299 10293 10285 10278 10270 10263 10254 10247 10239 10231 10223 10216 10208 10201 10194 10187 10179 10173 10166 10159 10153 10146 10139 10132 10126 10121 10117 10112 10107 10101 10096 10092 10088 10083 10078 10074 10071 10066 10062 10058 10053 10050 10047 10044 10040 10037 10033 10029 10026 10023 10020 10018 10014 10012 10009 10007 10004 10002 9999 9998 9995 9993 9991 9989 9987 9985 9984 9982 9981 9979 9978 9977 9976 9974 9973 9973 9971 9971 9969 9969
10330 10324 10318 10313 10306 10301 10294 10288 10281 10273 10265 10257 10249 10241 10233 10226 10218 10211 10203 10196 10189 10182 10175 10168 10161 10154 10149 10143 10136 10130 10124 10118 10113 10108 10103 10098 10093 10088 10084 10079 10074 10070 10066 10063 10059 10054 10050 10046 10043 10040 10037 10033 10030 10026 10023 10020 10018 10014 10011 10009 10006 10004 10001 9999 9997 9994 9993 9991 9988 9986 9984 9983 9981 9979 9978 9977 9976 9974 9973 9973 9971 9970 9969 9969 9968 9967
10326 10320 10314 10309 10303 10296 10289 10283 10276 10268 10260 10252 10244 10236 10228 10221 10213 10206 10198 10191 10184 10178 10171 10163 10156 10149 10143 10138 10133 10127 10121 10115 10109 10104 10099 10094 10089 10085 10081 10076 10071 10067 10063 10059 10056 10052 10048 10044 10040 10036 10033 10030 10027 10024 10020 10018 10014 10011 10009 10006 10003 10001 9999 9996 9994 9992 9990 9988 9986 9984 9982 9980 9979 9977 9976 9974 9973 9973 9971 9970 9969 9968 9968 9967 9966 9965
10321 10316 10310 10304 10298 10291 10284 10278 10270 10263 10254 10246 10239 10231 10223 10216 10208 10201 10194 10186 10179 10173 10166 10159 10153 10145 10138 10132 10127 10121 10117 10111 10106 10101 10096 10091 10086 10081 10077 10073 10068 10064 10059 10056 10052 10048 10044 10041 10038 10034 10030 10027 10024 10021 10018 10014 10011 10009 10006 10003 10001 9998 9996 9994 9991 9989 9988 9986 9983 9981 9980 9978 9976 9975 9974 9973 9971 9970 9969 9968 9968 9966 9966 9965 9964 9964
10317 10311 10305 10299 10293 10286 10279 10271 10264 10257 10249 10241 10233 10226 10219 10211 10204 10196 10189 10182 10175 10168 10162 10155 10149 10142 10135 10129 10123 10117 10111 10107 10102 10097 10092 10087 10083 10078 10073 10069 10065 10061 10056 10053 10049 10045 10041 10038 10034 10031 10028 10024 10021 10018 10015 10012 10009 10006 10003 10001 9998 9996 9993 9991 9989 9987 9985 9983 9981 9979 9978 9976 9974 9973 9971 9970 9969 9968 9968 9966 9966 9965 9964 9963 9963 9962
10312 10306 10299 10294 10288 10281 10273 10266 10259 10251 10243 10236 10228 10221 10214 10206 10199 10192 10184 10178 10171 10164 10157 10151 10144 10138 10133 10126 10120 10114 10108 10103 10098 10093 10089 10084 10079 10075 10070 10066 10062 10058 10054 10049 10046 10043 10039 10035 10031 10028 10025 10021 10018 10015 10012 10009 10006 10004 10001 9998 9996 9993 9991 9989 9987 9985 9983 9981 9979 9978 9976 9974 9973 9971 9970 9969 9968 9966 9966 9964 9964 9963 9963 9962 9961 9961
10307 10301 10294 10288 10282 10276 10268 10261 10253 10246 10238 10231 10223 10216 10208 10201 10194 10187 10179 10173 10166 10159 10153 10146 10140 10134 10129 10123 10117 10111 10105 10100 10094 10090 10086 10081 10076 10072 10068 10063 10059 10055 10051 10047 10043 10039 10036 10033 10029 10025 10022 10019 10016 10013 10009 10007 10004 10001 9999 9996 9994 9991 9989 9987 9984 9983 9981 9979 9977 9976 9974 9973 9971 9969 9968 9967 9966 9965 9964 9963 9963 9962 9961 9960 9959 9959
10302 10296 10289 10283 10277 10270 10263 10256 10248 10240 10233 10226 10218 10211 10204 10197 10189 10183 10176 10168 10161 10154 10148 10141 10135 10129 10124 10119 10113 10108 10102 10097 10092 10087 10083 10078 10074 10069 10065 10061 10056 10053 10049 10045 10041 10037 10034 10030 10026 10023 10019 10016 10013 10011 10008 10004 10002 9999 9996 9994 9991 9989 9987 9984 9983 9981 9979 9977 9975 9974 9972 9971 9969 9968 9967 9966 9964 9963 9963 9961 9961 9960 9959 9959 9958 9958
10297 10291 10284 10278 10273 10266 10259 10251 10243 10236 10228 10221 10214 10207 10200 10193 10186 10179 10171 10164 10158 10151 10144 10138 10132 10126 10120 10114 10109 10104 10099 10094 10089 10084 10079 10075 10071 10067 10063 10058 10054 10050 10046 10043 10039 10035 10031 10028 10024 10021 10018 10014 10011 10008 10005 10003 10000 9997 9994 9992 9989 9987 9985 9983 9981 9979 9977 9975 9973 9972 9971 9969 9968 9966 9965 9964 9963 9962 9961 9960 9959 9959 9958 9958 9957 9956
10293 10286 10280 10274 10268 10261 10254 10247 10239 10232 10224 10217 10209 10202 10195 10188 10181 10174 10168 10161 10154 10147 10141 10134 10129 10123 10118 10112 10106 10101 10096 10091 10086 10082 10078 10073 10069 10064 10061 10056 10052 10048 10044 10040 10036 10033 10029 10026 10022 10019 10016 10013 10009 10006 10003 10001 9998 9995 9993 9990 9988 9985 9983 9981 9979 9977 9975 9973 9972 9970 9969 9968 9966 9965 9964 9963 9961 9961 9959 9959 9958 9957 9956 9956 9956 9955
10289 10283 10276 10269 10263 10256 10249 10242 10234 10228 10220 10213 10206 10198 10191 10184 10176 10169 10163 10156 10149 10143 10138 10131 10126 10120 10114 10109 10104 10099 10093 10088 10084 10079 10075 10071 10066 10063 10058 10054 10050 10046 10042 10038 10034 10031 10028 10024 10020 10017 10014 10011 10008 10004 10002 9999 9996 9994 9991 9989 9986 9984 9981 9979 9977 9975 9973 9972 9970 9969 9968 9966 9964 9963 9962 9961 9960 9959 9958 9957 9956 9956 9955 9954 9954 9954
10284 10279 10272 10266 10259 10252 10245 10238 10230 10223 10216 10208 10201 10194 10187 10179 10173 10166 10158 10152 10146 10139 10133 10128 10122 10116 10111 10106 10101 10096 10091 10086 10082 10077 10073 10069 10064 10060 10056 10052 10048 10044 10040 10036 10033 10029 10026 10022 10019 10015 10012 10009 10006 10003 10000 9997 9994 9992 9989 9987 9984 9983 9980 9978 9976 9974 9972 9970 9969 9968 9966 9964 9963 9962 9961 9959 9958 9957 9956 9955 9954 9954 9953 9953 9953 9952
10280 10274 10268 10262 10255 10248 10241 10233 10226 10218 10211 10203 10196 10189 10182 10176 10169 10161 10154 10148 10142 10136 10130 10124 10119 10114 10108 10103 10098 10093 10088 10084 10079 10075 10071 10066 10062 10058 10054 10050 10046 10042 10039 10035 10031 10027 10024 10020 10017 10014 10011 10008 10004 10001 9999 9996 9993 9991 9988 9986 9983 9981 9979 9976 9974 9973 9971 9969 9968 9966 9964 9963 9962 9961 9959 9958 9957 9956 9954 9954 9953 9953 9952 9951 9951 9951
10276 10271 10264 10258 10251 10243 10236 10228 10221 10213 10206 10199 10192 10185 10178 10171 10164 10158 10151 10144 10138 10133 10128 10122 10116 10111 10106 10101 10096 10091 10086 10082 10078 10073 10069 10064 10060 10056 10052 10048 10044 10040 10036 10033 10029 10026 10022 10019 10015 10012 10009 10006 10003 10000 9998 9994 9992 9989 9987 9984 9982 9979 9978 9975 9973 9971 9970 9968 9966 9965 9963 9962 9961 9959 9958 9957 9956 9954 9953 9953 9952 9951 9950 9950 9949 9949
10273 10266 10260 10253 10246 10238 10231 10223 10216 10209 10202 10195 10188 10181 10174 10167 10161 10154 10147 10141 10135 10129 10124 10119 10113 10108 10103 10098 10093 10089 10084 10079 10076 10071 10067 10063 10058 10054 10050 10046 10042 10038 10034 10031 10028 10024 10021 10018 10014 10011 10008 10005 10002 9999 9996 9994 9991 9988 9986 9983 9981 9979 9976 9974 9973 9971 9969 9967 9966 9964 9963 9961 9959 9958 9957 9956 9954 9953 9953 9951 9951 9950 9949 9949 9948 9948
10267 10261 10254 10248 10240 10233 10226 10219 10212 10204 10198 10191 10184 10177 10170 10163 10156 10150 10144 10138 10132 10126 10121 10116 10111 10106 10101 10096 10091 10086 10082 10078 10073 10069 10064 10061 10056 10052 10048 10044 10041 10037 10033 10029 10026 10023 10019 10016 10013 10010 10007 10004 10001 9998 9996 9993 9990 9988 9985 9983 9980 9978 9976 9974 9971 9969 9968 9966 9965 9963 9962 9960 9959 9958 9956 9955 9954 9953 9952 9951 9950 9949 9949 9948 9948 9947
10262 10256 10249 10242 10235 10228 10221 10214 10208 10200 10193 10186 10179 10173 10166 10159 10153 10146 10140 10134 10129 10124 10119 10113 10108 10103 10098 10094 10089 10084 10080 10076 10071 10067 10063 10059 10054 10051 10046 10043 10039 10035 10032 10028 10024 10021 10018 10015 10012 10009 10006 10003 10000 9998 9994 9992 9989 9987 9984 9982 9979 9978 9975 9973 9971 9969 9968 9966 9964 9963 9961 9959 9958 9957 9956 9954 9953 9952 9951 9950 9949 9949 9948 9948 9947 9946
10258 10251 10244 10238 10230 10223 10216 10209 10203 10196 10189 10182 10175 10169 10162 10156 10149 10143 10137 10131 10126 10121 10116 10111 10106 10101 10096 10091 10087 10083 10079 10074 10070 10066 10061 10057 10053 10049 10045 10041 10038 10034 10030 10027 10024 10020 10017 10014 10011 10008 10005 10003 9999 9997 9994 9991 9989 9986 9984 9981 9979 9977 9975 9973 9971 9969 9967 9966 9964 9962 9961 9959 9958 9956 9955 9954 9953 9952 9951 9950 9949 9948 9948 9948 9947 9946
10253 10247 10240 10233 10226 10219 10212 10205 10198 10191 10184 10178 10171 10164 10158 10152 10146 10140 10134 10128 10123 10118 10113 10108 10103 10099 10094 10089 10085 10081 10077 10073 10068 10064 10059 10056 10052 10048 10044 10040 10036 10033 10029 10026 10023 10019 10016 10013 10010 10008 10005 10002 9999 9997 9994 9991 9989 9986 9984 9981 9979 9977 9974 9973 9971 9969 9967 9965 9964 9962 9961 9959 9958 9956 9955 9954 9953 9952 9951 9950 9949 9948 9948 9947 9946 9946
10249 10243 10236 10229 10223 10216 10208 10201 10194 10188 10181 10174 10168 10161 10154 10148 10143 10137 10131 10126 10121 10116 10111 10106 10101 10096 10092 10088 10083 10079 10075 10071 10066 10062 10058 10054 10050 10046 10043 10039 10036 10032 10029 10025 10022 10019 10016 10013 10010 10008 10005 10002 9999 9997 9994 9991 9989 9986 9984 9981 9979 9977 9975 9973 9971 9969 9967 9965 9964 9962 9960 9959 9958 9956 9955 9954 9953 9952 9951 9949 9949 9948 9948 9947 9946 9946
10244 10238 10231 10225 10218 10211 10204 10198 10191 10184 10177 10171 10164 10158 10151 10145 10139 10134 10128 10123 10118 10114 10109 10104 10099 10095 10090 10086 10081 10078 10073 10069 10065 10061 10056 10053 10049 10045 10041 10038 10034 10031 10028 10024 10021 10019 10016 10013 10009 10007 10004 10002 9999 9996 9994 9991 9988 9986 9983 9981 9979 9977 9975 9973 9971 9969 9967 9965 9964 9962 9960 9959 9958 9956 9955 9954 9953 9952 9951 9949 9949 9948 9948 9947 9946 9946